Starlink 5806

operational
NORAD ID: 56007 Int'l Des: 2023-042 Owner: SPXS Country: US Constellation: starlink
LEOCIRCULAR

Starlink 5806について

説明を読み込み中...

リアルタイム位置

3D地球を読み込み中...

次回通過

高度履歴

Altitude vs Time

uPlot chart will show altitude changes over time

軌道要素

1 56007U 23042X 25354.11057769 -.00000217 00000-0 -95148-6 0 9999
2 56007 43.0029 128.1738 0001386 270.6865 89.3818 15.02539483150946
Epoch: Dec 20, 2025 • Age: 12 hours

現在のステータス

高度 563.1 km
速度 7.59 km/s
衛星直下点 42.94°N, 93.89°W
打ち上げ日 Mar 24, 2023
運用期間 2.7 years
タイプ internet

技術仕様

分類 Payload
質量 305.00 kg
乾燥質量 290.00 kg
総質量 305.00 kg
長さ 0.20 m
直径 2.80 m
スパン 9.00 m
形状 Box + pan
製造者 SPXS
バスタイプ Starlink
フェーズステータス In Orbit
所有者/国 SPXS/US

大規模コンステレーション

Loading constellations...